Starlink 30282

operational
NORAD ID: 57883 Int'l Des: 2023-144 Owner: SPXS Country: US Constellation: starlink
LEOCIRCULAR

Über Starlink 30282

Beschreibung wird geladen...

Live-Position

3D-Globus wird geladen...

Nächste Überflüge

Höhenverlauf

Altitude vs Time

uPlot chart will show altitude changes over time

Zweizeiliger Elementsatz

1 57883U 23144V 25353.71780580 .00000375 00000-0 42833-4 0 9998
2 57883 43.0068 1.7765 0002446 269.9016 90.1546 15.02550098125580
Epoch: 19. Dez. 2025 • Age: 9 hours

Aktueller Status

Höhe 561.0 km
Geschwindigkeit 7.58 km/s
Subsatellitenpunkt 30.51°N, 25.16°E
Startdatum 16. Sept. 2023
Alter 2.2 years
Typ internet

Technische Details

Klassifizierung Payload
Masse 730.00 kg
Trockenmasse 700.00 kg
Gesamtmasse 730.00 kg
Länge 0.30 m
Durchmesser 4.10 m
Spannweite 29.00 m
Form Box + pan
Hersteller SPXS
Bus-Typ Starlink V2M
Phasenstatus In Orbit
Besitzer/Staat SPXS/US

Große Konstellationen

Loading constellations...